Regional Weather Roundup
Issued by NWS

Home | Current Version | Previous Version | Text Only | Print | Product List | Glossary On
Versions: 1 2 3 4 5 6 7 8 9 10 11 12 13 14 15 16 17 18 19 20 21 22 23 24 25 26 27
000
ASUS43 KDMX 200307
RWRIA

WEATHER ROUNDUP FOR IOWA
NATIONAL WEATHER SERVICE DES MOINES IA
1000 PM CDT SAT APR 19 2014

NOTE: "FAIR" INDICATES FEW OR NO CLOUDS BELOW 12,000 FEET WITH NO
SIGNIFICANT WEATHER AND/OR OBSTRUCTIONS TO VISIBILITY.

* - THESE STATIONS ARE NOT NWS STATIONS...THUS NOT UNDER NWS
QUALITY CONTROL.  THEY ALSO DO NOT REPORT WEATHER SUCH
AS PRECIPITATION OR FOG.

IAZ001>003-012>014-020>022-031>034-043>046-200400-
   NORTHWEST IOWA

CITY           SKY/WX    TMP DP  RH WIND       PRES   REMARKS
CARROLL *      CLOUDY    66  43  42 S12       30.02R
CHEROKEE *     CLOUDY    63  46  55 CALM      29.99S
DENISON *      CLOUDY    70  43  37 S14G21    29.99R
LE MARS *      CLOUDY    64  45  48 NE7       30.00R
ORANGE CITY *  CLOUDY    64  41  42 NE5       30.00R
SHELDON *      CLOUDY    61  46  59 NE7       29.99S
SIOUX CITY     CLOUDY    64  49  57 E5        29.98R
SPENCER        CLOUDY    62  48  60 NE9       30.01R
STORM LAKE *   CLOUDY    64  45  48 SE9       30.01S
$$

IAZ055>058-069>071-079>083-090>094-200400-
   SOUTHWEST IOWA

CITY           SKY/WX    TMP DP  RH WIND       PRES   REMARKS
ATLANTIC *     CLOUDY    68  45  42 S10G16    30.03R
AUDUBON *      PTCLDY    66  39  37 S9        30.04R
CLARINDA *     CLEAR     64  45  48 S6        30.07R
COUNCIL BLFS * CLOUDY    68  46  45 S15G21    30.00R
CRESTON *      MOCLDY    63  46  55 S10       30.08R
HARLAN  *      CLOUDY    68  45  42 S13       30.05R
LAMONI         CLEAR     63  44  50 S8        30.09R
RED OAK *      CLOUDY    68  45  42 S14       30.04R
SHENANDOAH *   MOCLDY    68  45  42 S13       30.04R
$$

IAZ047>049-059>061-072>074-084-200400-
   CENTRAL IOWA

CITY           SKY/WX    TMP DP  RH WIND       PRES   REMARKS
AMES           CLOUDY    65  44  46 SE7       30.06R
ANKENY *       MOCLDY    64  45  48 S8        30.07R
CHARITON *     PTCLDY    61  45  55 S9        30.10R
DES MOINES     PTCLDY    65  43  44 S9        30.08R
GRINNELL*      PTCLDY    59  45  58 S9        30.10R
KNOXVILLE *    CLEAR     64  43  45 SE7       30.09R
MARSHALLTOWN   CLOUDY    66  45  46 S9        30.07R
NEWTON *       PTCLDY    59  43  55 S9        30.10R
PELLA *        PTCLDY    64  45  48 S7        30.11R
PERRY *        CLOUDY    66  41  39 S12       30.04S
$$

IAZ004>006-015-016-023>025-035-036-200400-
   NORTH CENTRAL IOWA

CITY           SKY/WX    TMP DP  RH WIND       PRES   REMARKS
ALGONA *       CLOUDY    66  43  42 S13       30.01S
CLARION *      CLOUDY    66  45  45 S14       30.03S
ESTHERVILLE    CLOUDY    59  50  72 N8        30.01R
FORT DODGE *   CLOUDY    70  43  37 S14       30.03S
MASON CITY     CLOUDY    62  46  55 S9        30.04S
FOREST CITY *  CLOUDY    63  45  51 S8        30.02S
IOWA FALLS *   CLOUDY    66  45  45 S14       30.06S
$$

IAZ007>011-017>019-026>030-037>042-050>054-066-200400-
   NORTHEAST IOWA

CITY           SKY/WX    TMP DP  RH WIND       PRES   REMARKS
CEDAR RAPIDS   PTCLDY    62  41  46 S8        30.11R
CHARLES CITY * CLOUDY    64  45  48 S12       30.07S
CLINTON *      MOCLDY    55  36  47 SE12      30.18F
DECORAH *      MOCLDY    61  43  51 S8        30.08S
DUBUQUE        MOCLDY    56  36  47 S14       30.14S
MONTICELLO *   CLEAR     57  39  51 SE7       30.12S
OELWEIN *      MOCLDY   N/A N/A N/A SE10      30.11R
WATERLOO       CLOUDY    64  43  46 SE12      30.08R
$$

IAZ064-065-067-068-078-200400-
   EAST CENTRAL IOWA

CITY           SKY/WX    TMP DP  RH WIND       PRES   REMARKS
DAVENPORT      MOCLDY    60  35  39 S10       30.18R
IOWA CITY      PTCLDY    58  41  53 SE6       30.13S
MT. PLEASANT * PTCLDY    61  36  39 SE9       30.14S
MUSCATINE *    CLEAR     57  39  51 SE6       30.14F
QUAD CITIES    MOCLDY    55  35  47 SE7       30.16R
$$

IAZ062-063-075>077-085>089-095>099-200400-
   SOUTHEAST IOWA

CITY           SKY/WX    TMP DP  RH WIND       PRES   REMARKS
BURLINGTON     MOCLDY    63  36  36 SE7       30.15R
FAIRFIELD *    CLEAR     59  41  51 SE8       30.13R
FORT MADISON * CLEAR     63  37  39 SE7       30.16S
KEOKUK *       CLEAR     63  32  31 SE6       30.14S
OSKALOOSA *      N/A     59  43  55 SE10      30.11R
CENTERVILLE *  CLEAR     59  41  51 SE5       30.13R
OTTUMWA        CLEAR     61  40  45 S8        30.11R
WASHINGTON *   CLEAR     61  41  48 S12       30.13S
$$

ABBREVIATIONS USED IN REMARKS
   TC - TEMPERATURES IN CELSIUS
  WCI - WIND CHILL INDEX
   HX - HEAT INDEX
  VSB - VISIBILITY
$$




USA.gov is the U.S. government's official web portal to all federal, state and local government web resources and services.